Location: Pouilly
(47.2624°N, 4.5558°E)
Time: 22:22:27
(UTC+00:00)

Cosmos 1825 Rocket - Pass Details

Date: 07 June 2020
Orbit: 605 x 630 km, 82.5° (Epoch: 08 July)

Event Time Altitude Azimuth Distance (km) Brightness Sun altitude
Exits shadow 01:08:38 30° 232° (SW) 1,093 4.3 -17.2°
Maximum altitude 01:10:18 45° 284° (WNW) 834 4.1 -17.1°
Drops below altitude 10° 01:14:31 10° 358° (N) 1,980 7.2 -16.8°
Sets 01:16:50 0° 5° (N) 2,894 8.4 -16.7°
